Date_and_time,latitude,longitude,wind_speed,RelWindDirFrom,WindDirFrom,air_pressure,air_temperature,relative_humidity,Temp,platform_speed_wrt_ground,air_pressure_at_mean_sea_level,platform_orientation
2019-06-24 00:00,50.6304716666667,-96.9807666666667,5.7,8.6,248,978.18,22.9,44,20.71,0.0,1003.61,360.0
2019-06-24 00:10,50.6304733333333,-96.9807633333333,6.2,10.2,234,978.21,22.6,45,20.63,0.0,1003.65,360.0
2019-06-24 00:20,50.630455,-96.9807733333333,5.8,7.9,219,978.27,22.5,46,20.48,0.0,1003.71,360.0
2019-06-24 00:30,50.6304533333333,-96.9807716666667,6.3,10.7,224,978.30,22.4,46,20.51,0.0,1003.76,360.0
2019-06-24 00:40,50.630455,-96.9807733333333,5.9,9.1,246,978.26,22.3,46,20.59,0.0,1003.72,360.0
2019-06-24 00:50,50.6304333333333,-96.9807683333333,5.7,8.9,236,978.16,22.2,46,20.64,0.0,1003.60,360.0
2019-06-24 01:00,50.6304416666667,-96.980765,5.3,8.0,239,978.06,22.4,46,20.71,0.0,1003.51,223.0
2019-06-24 01:10,50.630445,-96.98077,5.0,7.7,236,977.93,22.3,46,20.62,0.0,1003.39,223.0
2019-06-24 01:20,50.6304483333333,-96.98077,5.1,7.4,223,977.99,22.4,46,20.58,0.0,1003.44,223.0
2019-06-24 01:30,50.6304466666667,-96.98077,4.9,8.4,221,978.02,22.1,48,20.52,0.0,1003.47,223.0
2019-06-24 01:40,50.6304466666667,-96.9807683333333,4.0,6.2,223,977.90,22.2,48,20.53,0.0,1003.35,223.0
2019-06-24 01:50,50.6304466666667,-96.9807683333333,5.0,6.4,210,977.81,22.2,48,20.52,0.0,1003.27,223.0
2019-06-24 02:00,50.6304466666667,-96.9807666666667,4.8,5.9,194,977.72,21.9,50,20.54,0.0,1003.20,66.4
2019-06-24 02:10,50.63045,-96.9807833333333,4.0,4.8,200,977.61,21.5,52,20.38,0.0,1003.11,66.4
2019-06-24 02:20,50.6304533333333,-96.98076,4.2,4.9,200,977.70,21.4,52,20.32,0.0,1003.20,66.4
2019-06-24 02:30,50.63045,-96.9807983333333,4.5,5.5,198,977.85,21.1,53,20.27,0.0,1003.38,66.4
2019-06-24 02:40,50.6304483333333,-96.9807766666667,4.3,5.1,195,977.92,20.6,56,20.34,0.0,1003.47,66.4
2019-06-24 02:50,50.6304433333333,-96.9807466666667,3.9,4.6,205,977.93,20.3,56,20.43,0.0,1003.49,66.4
2019-06-24 03:00,50.6304466666667,-96.9807733333333,4.2,5.3,205,977.93,20.2,56,20.44,0.0,1003.50,360.0
2019-06-24 03:10,50.6304466666667,-96.98077,3.8,4.5,206,977.92,20.0,57,20.41,0.0,1003.49,360.0
2019-06-24 03:20,50.6304433333333,-96.9807666666667,3.9,4.5,207,977.96,19.7,58,20.32,0.0,1003.56,360.0
2019-06-24 03:30,50.630445,-96.9807683333333,4.0,4.8,211,977.99,19.5,59,20.27,0.0,1003.59,360.0
2019-06-24 03:40,50.6304616666667,-96.980775,4.7,5.9,207,977.88,19.4,59,20.31,0.0,1003.49,360.0
2019-06-24 03:50,50.630445,-96.9807616666667,4.6,5.6,213,977.77,19.3,60,20.22,0.0,1003.39,360.0
2019-06-24 04:00,50.6304466666667,-96.98077,4.3,5.1,213,977.75,19.2,60,20.18,0.0,1003.39,360.0
2019-06-24 04:10,50.630425,-96.9807683333333,4.3,5.4,215,977.75,19.0,61,20.08,0.0,1003.40,360.0
2019-06-24 04:20,50.630435,-96.9807666666667,4.6,5.8,213,977.82,18.9,61,19.98,0.0,1003.50,360.0
2019-06-24 04:30,50.6304366666667,-96.980765,4.7,5.5,219,977.78,18.8,61,19.91,0.0,1003.48,360.0
2019-06-24 04:40,50.63044,-96.9807683333333,4.6,5.4,221,977.65,18.5,62,19.88,0.0,1003.37,360.0
2019-06-24 04:50,50.6304516666667,-96.9807666666667,4.8,5.8,228,977.50,18.1,63,19.94,0.0,1003.25,360.0
2019-06-24 05:00,50.63045,-96.980765,4.5,5.5,231,977.36,17.8,65,19.92,0.0,1003.12,360.0
2019-06-24 05:10,50.6304466666667,-96.980755,4.1,4.8,232,977.28,17.3,68,19.93,0.0,1003.08,360.0
2019-06-24 05:20,50.6304516666667,-96.9807616666667,3.9,4.8,241,977.15,16.9,69,19.91,0.0,1002.97,360.0
2019-06-24 05:30,50.63045,-96.9807666666667,3.9,4.7,237,977.09,16.8,70,19.85,0.0,1002.92,360.0
2019-06-24 05:40,50.6304483333333,-96.9807666666667,4.0,4.9,226,977.10,16.5,72,19.80,0.0,1002.94,360.0
2019-06-24 05:50,50.6304483333333,-96.980765,2.8,4.0,215,977.00,16.3,74,19.76,0.0,1002.86,360.0
2019-06-24 06:00,50.6304216666667,-96.9807516666667,2.8,3.8,204,976.96,16.2,75,19.72,0.0,1002.83,152.8
2019-06-24 06:10,50.6304466666667,-96.9807483333333,3.2,4.4,216,976.95,16.1,77,19.69,0.0,1002.82,152.8
2019-06-24 06:20,50.6304716666667,-96.9807416666667,3.6,5.0,218,976.89,15.9,77,19.70,0.0,1002.78,152.8
2019-06-24 06:30,50.6304416666667,-96.98075,4.2,5.6,227,976.76,15.8,76,19.72,0.0,1002.66,152.8
2019-06-24 06:40,50.6304483333333,-96.980755,4.7,5.9,232,976.69,15.7,76,19.70,0.0,1002.62,152.8
2019-06-24 06:50,50.6304483333333,-96.9807566666667,4.9,6.0,229,976.64,15.6,77,19.71,0.0,1002.59,152.8
2019-06-24 07:00,50.6304466666667,-96.9807566666667,4.4,5.8,224,976.72,15.5,77,19.69,0.0,1002.69,90.0
2019-06-24 07:10,50.6304483333333,-96.9807583333333,4.1,5.5,224,976.67,15.5,78,19.71,0.0,1002.65,90.0
2019-06-24 07:20,50.6304483333333,-96.98076,4.7,5.8,228,976.61,15.3,77,19.71,0.0,1002.61,90.0
2019-06-24 07:30,50.63045,-96.9807616666667,4.9,6.0,234,976.57,15.3,77,19.71,0.0,1002.58,90.0
2019-06-24 07:40,50.63045,-96.9807616666667,5.4,6.5,240,976.45,15.5,76,19.70,0.0,1002.47,90.0
2019-06-24 07:50,50.63045,-96.9807616666667,5.2,7.1,243,976.39,15.5,76,19.69,0.0,1002.39,90.0
2019-06-24 08:00,50.63045,-96.9807616666667,4.1,5.2,236,976.38,15.3,78,19.69,0.0,1002.41,90.0
2019-06-24 08:10,50.63045,-96.9807633333333,4.3,5.0,231,976.41,15.0,79,19.68,0.0,1002.46,90.0
2019-06-24 08:20,50.63045,-96.9807616666667,4.7,5.8,234,976.36,14.9,79,19.66,0.0,1002.42,90.0
2019-06-24 08:30,50.63045,-96.9807633333333,5.0,6.7,238,976.33,14.7,81,19.66,0.0,1002.40,90.0
2019-06-24 08:40,50.63045,-96.9807633333333,5.1,6.3,239,976.27,14.5,83,19.66,0.0,1002.35,90.0
2019-06-24 08:50,50.63045,-96.9807633333333,5.4,6.8,245,976.16,14.5,83,19.65,0.0,1002.24,90.0
2019-06-24 09:00,50.63045,-96.9807633333333,5.4,7.0,251,975.94,14.6,83,19.64,0.0,1002.01,360.0
2019-06-24 09:10,50.63045,-96.980765,5.1,6.8,255,975.80,14.7,84,19.64,0.0,1001.87,360.0
2019-06-24 09:20,50.63046,-96.9807733333333,4.7,6.2,255,975.71,14.7,85,19.64,0.0,1001.78,360.0
2019-06-24 09:30,50.6304533333333,-96.9807716666667,4.4,5.4,254,975.78,14.6,86,19.65,0.0,1001.86,360.0
2019-06-24 09:40,50.630455,-96.98077,4.6,5.4,251,975.76,14.5,88,19.65,0.0,1001.83,360.0
2019-06-24 09:50,50.6304533333333,-96.9807733333333,4.0,5.0,244,975.76,14.3,91,19.64,0.0,1001.85,360.0
2019-06-24 10:00,50.6304533333333,-96.9807716666667,4.1,5.1,235,975.84,14.1,94,19.71,0.0,1001.95,299.2
2019-06-24 10:10,50.6304533333333,-96.9807716666667,3.3,4.3,225,975.91,14.0,96,19.72,0.0,1002.04,299.2
2019-06-24 10:20,50.6304383333333,-96.98078,2.1,2.7,216,975.89,14.0,98,19.75,0.0,1002.02,299.2
2019-06-24 10:30,50.6304533333333,-96.9807683333333,2.6,3.5,216,975.81,14.2,99,19.73,0.0,1001.94,299.2
2019-06-24 10:40,50.6304466666667,-96.9807583333333,3.7,4.7,218,975.84,14.3,98,19.71,0.0,1001.97,299.2
2019-06-24 10:50,50.630445,-96.9807583333333,4.1,4.9,238,975.75,14.8,95,19.70,0.0,1001.85,299.2
2019-06-24 11:00,50.6304433333333,-96.9807583333333,4.3,5.7,238,975.64,15.1,92,19.70,0.0,1001.72,360.0
2019-06-24 11:10,50.6304316666667,-96.9807816666667,5.0,7.0,246,975.73,14.9,94,19.72,0.0,1001.83,360.0
2019-06-24 11:20,50.6304383333333,-96.9807433333333,5.6,7.1,251,975.76,14.7,94,19.69,0.0,1001.86,360.0
2019-06-24 11:30,50.6304466666667,-96.9807466666667,5.5,7.4,255,975.76,14.5,96,19.69,0.0,1001.88,360.0
2019-06-24 11:40,50.6304466666667,-96.9807533333333,5.8,7.6,260,975.68,14.5,96,19.68,0.0,1001.80,360.0
2019-06-24 11:50,50.6304483333333,-96.9807583333333,4.6,6.4,261,975.59,14.6,95,19.68,0.0,1001.71,360.0
2019-06-24 12:00,50.6304483333333,-96.9807616666667,4.8,7.3,265,975.51,14.6,95,19.62,0.0,1001.64,167.4
2019-06-24 12:10,50.6304483333333,-96.9807616666667,4.3,7.3,256,975.48,14.7,94,19.61,0.0,1001.60,167.4
2019-06-24 12:20,50.6304483333333,-96.9807616666667,6.2,8.3,258,975.44,14.9,91,19.64,0.0,1001.55,167.4
2019-06-24 12:30,50.6304483333333,-96.9807616666667,6.7,9.6,258,975.46,15.8,86,19.64,0.0,1001.52,167.4
2019-06-24 12:40,50.6304483333333,-96.980765,5.6,7.7,261,975.45,16.4,85,19.63,0.0,1001.46,167.4
2019-06-24 12:50,50.63045,-96.980765,5.2,7.8,262,975.43,16.9,84,19.64,0.0,1001.41,167.4
2019-06-24 13:00,50.63045,-96.9807666666667,3.8,6.4,255,975.41,17.2,83,19.63,0.0,1001.38,90.0
2019-06-24 13:10,50.63046,-96.9807633333333,3.6,5.3,248,975.36,17.4,84,19.63,0.0,1001.32,90.0
2019-06-24 13:20,50.63046,-96.9807733333333,1.1,5.3,244,975.43,17.7,82,19.63,0.0,1001.39,90.0
2019-06-24 13:30,50.6304566666667,-96.9807716666667,2.7,6.1,90,975.39,18.2,82,19.64,0.0,1001.33,90.0
2019-06-24 13:40,50.630455,-96.98077,2.3,5.3,267,975.28,18.1,79,19.62,0.0,1001.21,90.0
2019-06-24 13:50,50.6304516666667,-96.98077,2.5,4.8,284,975.25,18.4,76,19.61,0.0,1001.17,90.0
2019-06-24 14:00,50.6304383333333,-96.9807466666667,3.2,5.4,97,975.29,19.1,74,19.60,0.0,1001.17,90.0
2019-06-24 14:10,50.6304383333333,-96.98076,0.8,4.6,193,975.21,18.7,75,19.59,0.0,1001.10,90.0
2019-06-24 14:20,50.6304466666667,-96.9807466666667,0.8,4.3,272,975.09,18.8,74,19.57,0.0,1000.93,90.0
2019-06-24 14:30,50.6304533333333,-96.98076,5.4,7.5,91,975.08,19.5,75,19.56,0.0,1000.86,90.0
2019-06-24 14:40,50.63045,-96.9807666666667,3.8,5.4,99,975.04,19.7,73,19.54,0.0,1000.80,90.0
2019-06-24 14:50,50.6304516666667,-96.9807683333333,4.7,5.9,94,974.97,20.0,71,19.53,0.0,1000.69,90.0
2019-06-24 15:00,50.63045,-96.98077,4.6,6.1,90,974.93,20.0,72,19.56,0.0,1000.64,347.4
2019-06-24 15:10,50.63043,-96.9807733333333,4.8,6.2,103,974.87,20.0,72,19.56,0.0,1000.58,347.4
2019-06-24 15:20,50.63045,-96.9807716666667,5.0,6.6,106,974.83,20.0,72,19.56,0.0,1000.51,347.4
2019-06-24 15:30,50.6304433333333,-96.9807683333333,5.2,6.2,99,974.81,20.3,69,19.57,0.0,1000.48,347.4
2019-06-24 15:40,50.630445,-96.9807683333333,6.0,7.5,109,974.80,20.2,70,19.57,0.0,1000.46,347.4
2019-06-24 15:50,50.630445,-96.9807666666667,5.7,7.0,104,974.68,20.0,71,19.57,0.0,1000.31,347.4
2019-06-24 16:00,50.6304466666667,-96.9807666666667,6.6,8.5,106,974.62,19.9,73,19.58,0.0,1000.27,360.0
2019-06-24 16:10,50.6304466666667,-96.980765,6.2,8.0,110,974.53,20.0,71,19.57,0.0,1000.17,360.0
2019-06-24 16:20,50.6304466666667,-96.9807666666667,5.7,7.2,110,974.49,20.0,70,19.56,0.0,1000.11,360.0
2019-06-24 16:30,50.63042,-96.980755,6.4,7.5,103,974.53,20.7,66,19.56,0.0,1000.11,360.0
2019-06-24 16:40,50.6304366666667,-96.9807683333333,6.0,7.2,100,974.53,20.8,64,19.57,0.0,1000.08,360.0
2019-06-24 16:50,50.6304383333333,-96.9807666666667,6.3,7.7,101,974.58,21.1,63,19.57,0.0,1000.13,360.0
2019-06-24 17:00,50.63044,-96.980765,5.9,7.0,107,974.58,20.9,65,19.58,0.0,1000.13,270.0
2019-06-24 17:10,50.6304433333333,-96.980765,5.9,7.3,107,974.54,20.7,65,19.59,0.0,1000.10,270.0
2019-06-24 17:20,50.63044,-96.980775,5.7,6.8,111,974.46,21.0,64,19.59,0.0,999.99,270.0
2019-06-24 17:30,50.6304483333333,-96.9807716666667,6.0,7.3,111,974.32,20.9,64,19.59,0.0,999.86,270.0
2019-06-24 17:40,50.63045,-96.980775,6.4,7.6,112,974.26,20.9,64,19.61,0.0,999.80,270.0
2019-06-24 17:50,50.6304516666667,-96.9807716666667,7.2,8.1,109,974.21,21.2,63,19.67,0.0,999.74,270.0
2019-06-24 18:00,50.6304483333333,-96.9807716666667,6.9,7.8,113,974.14,21.0,65,19.75,0.0,999.68,192.6
2019-06-24 18:10,50.6304483333333,-96.98077,6.3,7.2,100,974.14,21.6,61,19.76,0.0,999.65,192.6
2019-06-24 18:20,50.6304466666667,-96.9807916666667,6.5,7.5,102,974.01,22.1,61,19.75,0.0,999.47,192.6
2019-06-24 18:30,50.6304266666667,-96.980745,6.4,7.4,96,973.92,22.1,60,19.77,0.0,999.37,192.6
2019-06-24 18:40,50.6304416666667,-96.9807733333333,7.1,8.3,95,973.96,22.4,59,19.93,0.0,999.39,192.6
2019-06-24 18:50,50.6304483333333,-96.9807883333333,8.0,9.3,95,973.96,22.5,59,19.93,0.0,999.39,192.6
2019-06-24 19:00,50.6304483333333,-96.9807766666667,8.0,9.4,95,973.87,22.6,58,20.15,0.0,999.30,270.0
2019-06-24 19:10,50.6304466666667,-96.9807716666667,7.5,9.2,92,973.75,22.4,58,20.31,0.0,999.17,270.0
2019-06-24 19:20,50.630445,-96.9807733333333,7.7,9.6,90,973.63,22.4,57,20.40,0.0,999.05,270.0
2019-06-24 19:30,50.6304466666667,-96.980775,8.1,9.7,94,973.53,22.5,57,20.37,0.0,998.95,270.0
2019-06-24 19:40,50.6304416666667,-96.9807866666667,7.8,8.9,96,973.47,22.8,58,20.37,0.0,998.85,270.0
2019-06-24 19:50,50.6304383333333,-96.98076,7.5,8.8,99,973.40,22.9,59,20.64,0.0,998.79,270.0
2019-06-24 20:00,50.6304383333333,-96.9807616666667,7.4,8.5,98,973.31,22.9,59,20.73,0.0,998.68,90.0
2019-06-24 20:10,50.630445,-96.980765,8.3,9.6,103,973.21,22.6,60,20.75,0.0,998.56,90.0
2019-06-24 20:20,50.630445,-96.9807683333333,8.4,9.6,97,973.13,22.7,59,20.76,0.0,998.47,90.0
2019-06-24 20:30,50.63046,-96.980775,8.3,9.3,95,973.05,22.9,58,20.80,0.0,998.37,90.0
2019-06-24 20:40,50.63046,-96.9807683333333,8.5,9.5,101,972.92,22.8,60,20.94,0.0,998.24,90.0
2019-06-24 20:50,50.6304216666667,-96.9808,8.2,9.5,105,972.82,22.6,61,21.05,0.0,998.15,90.0
2019-06-24 21:00,50.63044,-96.98078,7.2,8.6,94,972.84,22.9,60,21.09,0.0,998.16,240.8
2019-06-24 21:10,50.6304466666667,-96.9807766666667,8.1,9.6,93,972.80,23.3,58,21.19,0.0,998.10,240.8
2019-06-24 21:20,50.6304466666667,-96.980775,8.3,9.6,107,972.77,23.0,61,21.23,0.0,998.07,240.8
2019-06-24 21:30,50.6304283333333,-96.98077,8.0,9.2,115,972.71,22.5,64,21.11,0.0,998.02,240.8
2019-06-24 21:40,50.6304566666667,-96.98077,8.4,9.3,121,972.61,22.2,65,21.17,0.0,997.93,240.8
2019-06-24 21:50,50.6304533333333,-96.9807766666667,7.5,8.5,122,972.57,22.3,66,21.27,0.0,997.88,240.8
2019-06-24 22:00,50.6304433333333,-96.9807616666667,7.1,8.4,110,972.60,22.5,68,21.44,0.0,997.91,125.3
2019-06-24 22:10,50.6304483333333,-96.9807716666667,7.3,8.5,111,972.55,22.6,70,21.41,0.0,997.86,125.3
2019-06-24 22:20,50.6304483333333,-96.98077,6.6,7.7,114,972.56,22.4,72,21.37,0.0,997.86,125.3
2019-06-24 22:30,50.6304433333333,-96.9807666666667,6.6,7.3,106,972.44,22.6,72,21.37,0.0,997.74,125.3
2019-06-24 22:40,50.630445,-96.9807716666667,6.4,7.2,109,972.37,22.6,72,21.42,0.0,997.68,125.3
2019-06-24 22:50,50.6304433333333,-96.9807716666667,7.0,7.7,113,972.32,22.3,72,21.47,0.0,997.62,125.3
2019-06-24 23:00,50.630445,-96.980775,6.7,7.7,124,972.31,22.3,72,21.56,0.0,997.60,270.0
2019-06-24 23:10,50.6304433333333,-96.980765,5.7,6.7,117,972.29,22.4,75,21.57,0.0,997.58,270.0
2019-06-24 23:20,50.630455,-96.980775,5.2,6.5,127,972.33,22.4,75,21.53,0.0,997.65,270.0
2019-06-24 23:30,50.6304416666667,-96.98076,4.8,6.5,123,972.39,22.6,72,21.41,0.0,997.71,270.0
2019-06-24 23:40,50.6304483333333,-96.9807583333333,4.8,5.6,95,972.37,22.6,75,21.43,0.0,997.69,270.0
